Tracking 28902 objects as of 19-May-2024
HD Live streaming from Space Station
objects crossing your sky now

DELTA 1 DEB

Track DELTA 1 DEB now!
10-day predictions


NORAD ID: 7134
Int'l Code: 1973-086CY
Perigee: 1,452.0 km
Apogee: 1,469.5 km
Inclination: 101.8 °
Period: 115.0 minutes
Semi major axis: 7831 km
RCS: 0.1006 m2 (medium)
Launch date: November 6, 1973
Source: United States (US)
Launch site: AIR FORCE WESTERN TEST RANGE (AFWTR)

Note: This is SATELLITE DEBRIS
Your satellite tracking list
Your tracking list is empty




NASA's NSSDC Master Catalog

Two Line Element Set (TLE):
1  7134U 73086CY  24140.14911910  .00000431  00000-0  30250-2 0  9996
2  7134 101.8402 267.0645 0011154 263.6557 272.6774 12.52598372305185
Source of the keplerian elements: AFSPC